TimePST,TemperatureF,Dew PointF,Humidity,Sea Level PressureIn,VisibilityMPH,Wind Direction,Wind SpeedMPH,Gust SpeedMPH,PrecipitationIn,Events,Conditions,WindDirDegrees,DateUTC
12:58 AM,45.3,12.4,26,30.05,10.0,ENE,6.9,-,N/A,,Clear,60,2014-01-28 08:58:00
1:58 AM,44.6,13.3,28,30.07,10.0,NE,2.3,-,N/A,,Overcast,40,2014-01-28 09:58:00
2:58 AM,43.9,14.4,30,30.08,10.0,NW,4.6,-,N/A,,Mostly Cloudy,310,2014-01-28 10:58:00
3:58 AM,43.7,14.0,30,30.08,10.0,NNE,4.6,-,N/A,,Scattered Clouds,20,2014-01-28 11:58:00
4:58 AM,40.5,14.5,35,30.10,10.0,West,1.2,-,N/A,,Mostly Cloudy,270,2014-01-28 12:58:00
5:58 AM,41.9,13.6,32,30.13,10.0,Calm,Calm,-,N/A,,Partly Cloudy,0,2014-01-28 13:58:00
6:58 AM,42.1,14.2,32,30.15,10.0,North,2.3,-,N/A,,Scattered Clouds,350,2014-01-28 14:58:00
7:58 AM,45.7,16.7,31,30.18,10.0,Calm,Calm,-,N/A,,Scattered Clouds,0,2014-01-28 15:58:00
8:58 AM,49.1,19.0,30,30.19,10.0,WSW,4.6,-,N/A,,Partly Cloudy,240,2014-01-28 16:58:00
9:58 AM,56.3,19.0,23,30.19,10.0,SW,4.6,-,N/A,,Overcast,230,2014-01-28 17:58:00
10:58 AM,62.2,20.3,20,30.17,10.0,ENE,11.5,-,N/A,,Clear,60,2014-01-28 18:58:00
11:58 AM,64.8,20.7,19,30.14,10.0,NE,11.5,-,N/A,,Clear,50,2014-01-28 19:58:00
12:58 PM,65.8,21.6,19,30.10,10.0,ENE,6.9,18.4,N/A,,Clear,60,2014-01-28 20:58:00
1:58 PM,67.5,21.6,18,30.09,10.0,East,8.1,-,N/A,,Clear,100,2014-01-28 21:58:00
2:58 PM,67.8,21.9,18,30.07,10.0,East,5.8,-,N/A,,Clear,80,2014-01-28 22:58:00
3:58 PM,67.3,21.4,17,30.08,10.0,ENE,10.4,-,N/A,,Clear,60,2014-01-28 23:58:00
4:58 PM,64.6,21.7,19,30.09,10.0,ENE,5.8,-,N/A,,Clear,70,2014-01-29 00:58:00
5:58 PM,59.5,21.4,23,30.11,10.0,East,4.6,-,N/A,,Clear,90,2014-01-29 01:58:00
6:58 PM,57.7,21.4,24,30.12,10.0,NW,3.5,-,N/A,,Clear,320,2014-01-29 02:58:00
7:58 PM,53.1,20.7,28,30.13,10.0,NE,2.3,-,N/A,,Clear,50,2014-01-29 03:58:00
8:58 PM,50.5,21.0,31,30.13,10.0,Calm,Calm,-,N/A,,Clear,0,2014-01-29 04:58:00
9:58 PM,47.8,20.3,34,30.14,10.0,Calm,Calm,-,N/A,,Clear,0,2014-01-29 05:58:00
10:58 PM,44.4,20.1,38,30.14,10.0,Calm,Calm,-,N/A,,Clear,0,2014-01-29 06:58:00
11:58 PM,45.1,20.5,38,30.14,10.0,North,2.3,-,N/A,,Clear,10,2014-01-29 07:58:00